ATLAS 5 CENTAUR DEB, 46637

Orbit data source: Space-Track

ATLAS 5 CENTAUR DEB, 46637 is space debris in HEO originally from a launch on Wed, 17 Sep 2014 UTC launched from the Air Force Eastern Test Range (AFETR). Debris objects in space refer to the collection of defunct objects orbiting the Earth. Examples of debris include non-operational satellites, rocket bodies, and fragments generated from explosions, collisions, or faulty payload assembly.

Loading next visibility...
Identifier
46637, 2014-055CM
Orbit
HEO
Country
Flag of USUS
Related business
Flag of USUnited Launch Alliance/Lockheed Martin (US)
Manufacturer
Unknown
Mission
Spacecraft
Bus & Motor
Unknown
Mass
Unknown
Launch date (UTC)
2014-09-17 (12 years ago)
Launch vehicle
Unknown
Launch site
Air Force Eastern Test Range (AFETR)
Object type
Payload
Rocket body
Debris
Shape & HBR
Unknown shape, 1.1 m
Radar Cross Section
Small (<0.1 m²)

Expand to show TLE details & history
Last TLE update: 1 day ago

TLE from 1 day ago
0 ATLAS 5 CENTAUR DEB
1 46637U 14055CM  26119.18929941 -.00000205  00000-0  00000-0 0  9991
2 46637  21.1708  91.8896 5085916 258.4481  42.6142  1.94678580 39520
Epoch: 2026-04-29T04:32Z
TLE epoch observation values (Epoch: 2026-04-29T04:32:35.469Z)
Latitude
-0.00004°
Longitude
166.52732°
Altitude
15,951.937 km
Speed
4.581 km/s
True Right ascension
06h 07m 18s
True Declination
0° 00' 00"
Sunlit
Object was in daylight at epoch
Visualization orbit readout
Latitude
Unknown
Longitude
Unknown
Altitude
Unknown
Speed
Unknown
Apparent Right ascension
Unknown
Apparent Declination
Unknown
Sunlit
N/A
Visualization observer readout
Local Sidereal Time
22:21:46
Azimuth
Unknown
Elevation
Unknown
Doppler factor
Unknown
Orbital elements
Apogee altitude
34,497.185 km
Perigee altitude
6,936.584 km
Semi-major axis
27,095.021 km
Eccentricity
0.50859
Inclination
21.1708°
RAAN
91.8896°
Arg. of periapsis
258.4481°
True anomaly
101.62953°
Mean anomaly
42.6142°
Eccentric anomaly
69.99635°
Mean motion
0.48664 °/min
Orbital period
739.76 mins
BSTAR
0
Loading maneuver chart data...
Computing Atmospheric mass density...

Documentation

Showing up to 5 results
|